Location: Wiesbaden
(50.0830°N, 8.2500°E)
Time: 06:01:26
(UTC+02:00)

ISS - Pass Details

Date: 27 March 2020
Orbit: 417 x 423 km, 51.6° (Epoch: 29 March)

Event Time Altitude Azimuth Distance (km) Brightness Sun altitude
Rises 20:40:04 0° 280° (W) 2,361 1.5 -17.4°
Reaches altitude 10° 20:42:10 10° 283° (WNW) 1,498 0.2 -17.7°
Maximum altitude 20:45:31 69° 7° (N) 450 -3.6 -18.2°
Enters shadow 20:46:09 53° 68° (ENE) 524 -3.6 -18.3°
